Flag for Austria Weather past 2 weeks in Klagenfurt, Carinthia, Austria

Now
64 °F

Mild.


Feels Like: 64 °F
Forecast: 58 / 86 °F
Wind: 3 mph from Northwest

Location: Klagenfurt-Flughafen

Current Time: Aug 29, 2015 at 2:37:59 AM

Latest Report: Aug 29, 2015 at 1:50 AM


Visibility: N/A

Pressure: 30.24 "Hg

Humidity: 88%

Dew point: 61 °F

Location of KlagenfurtLocation

Historic Weather in Klagenfurt — Graph

°F

Klagenfurt temperature yesterday

Maximum temperature yesterday: 88 °F (at 6:20 PM)
Minimum temperature yesterday: 57 °F (at 5:50 AM)
Average temperature yesterday: 72 °F

Past Weeks' High & Low Weather Summary

 TemperatureHumidityPressure
High91 °F (Aug 14, 3:50 PM)100% (Aug 18, 1:50 AM)30.27 "Hg (Aug 18, 1:50 AM)
Low50 °F (Aug 23, 5:50 AM)29% (Aug 14, 5:50 PM)29.77 "Hg (Aug 16, 2:20 PM)
Average66 °F77%30.02 "Hg
* Reported Aug 14 1:20 AM — Aug 29 1:20 AM, Klagenfurt, Weather by CustomWeather, © 2015

Note: Actual official high and low records may vary slightly from our data, if they occured in-between our weather recording intervals... More about our weather records

Advertising

Klagenfurt weather history for previous 24 hours

 ConditionsComfort  
Time TempWeatherWind HumidityBarometerVisibility
1:20 AM
Sat, Aug 29
64 °FMild.5 mph88%30.24 "HgN/A
12:50 AM66 °FMild.5 mph83%30.24 "HgN/A
12:20 AM66 °FMild.2 mph83%30.21 "HgN/A
11:50 PM
Fri, Aug 28
68 °FMild.2 mph78%30.21 "HgN/A
10:50 PM68 °FClear.5 mph78%30.21 "Hg10 mi
10:20 PM70 °FClear.2 mph73%30.18 "Hg10 mi
9:50 PM70 °FClear.6 mph73%30.18 "Hg10 mi
9:20 PM72 °FClear.5 mph73%30.18 "Hg10 mi
8:50 PM73 °FClear.2 mph69%30.15 "Hg10 mi
8:20 PM75 °FSunny.3 mph61%30.15 "Hg10 mi
7:50 PM79 °FSunny.1 mph54%30.12 "Hg10 mi
7:20 PM82 °FSunny.1 mph48%30.12 "Hg10 mi
6:50 PM86 °FPassing clouds.2 mph35%30.12 "HgN/A
6:20 PM88 °FScattered clouds.3 mph31%30.12 "HgN/A
5:50 PM86 °FScattered clouds.3 mph35%30.12 "HgN/A
5:20 PM86 °FScattered clouds.3 mph43%30.12 "HgN/A
4:50 PM86 °FScattered clouds.6 mph43%30.12 "HgN/A
4:20 PM86 °FScattered clouds.6 mph40%30.12 "HgN/A
3:50 PM86 °FScattered clouds.5 mph40%30.12 "HgN/A
3:20 PM86 °FScattered clouds.3 mph38%30.12 "HgN/A
2:50 PM86 °FScattered clouds.2 mph43%30.12 "HgN/A
2:20 PM84 °FScattered clouds.3 mph45%30.12 "HgN/A
1:50 PM82 °FScattered clouds.5 mph51%30.12 "HgN/A
1:20 PM81 °FSunny.3 mph54%30.12 "Hg10 mi
12:50 PM81 °FSunny.2 mph54%30.12 "Hg10 mi
12:20 PM79 °FSunny.3 mph58%30.12 "Hg10 mi
11:50 AM77 °FSunny.3 mph61%30.12 "Hg10 mi
11:20 AM75 °FSunny.3 mph65%30.12 "Hg10 mi
10:50 AM75 °FSunny.3 mph65%30.12 "Hg10 mi
10:20 AM72 °FPassing clouds.3 mph69%30.12 "HgN/A
9:50 AM70 °FPassing clouds.3 mph73%30.12 "HgN/A
9:20 AM70 °FPassing clouds.5 mph73%30.12 "HgN/A
8:50 AM66 °FSunny.3 mph78%30.12 "Hg10 mi
8:20 AM63 °FSunny.5 mph88%30.12 "Hg10 mi
7:50 AM61 °FPassing clouds.6 mph88%30.12 "HgN/A
7:20 AM59 °FPassing clouds.3 mph94%30.09 "HgN/A
6:50 AM57 °FClear.2 mph100%30.09 "Hg10 mi
5:50 AM57 °FPassing clouds.5 mph94%30.09 "HgN/A
4:50 AM59 °FCool.6 mph94%30.07 "HgN/A
4:20 AM59 °FCool.2 mph94%30.07 "HgN/A
3:50 AM59 °FCool.5 mph94%30.07 "HgN/A
3:20 AM59 °FCool.3 mph94%30.07 "HgN/A
2:50 AM59 °FSleet. Fog.5 mph94%30.07 "HgN/A
2:20 AM61 °FCool.2 mph94%30.07 "HgN/A
Weather by CustomWeather, © 2015

See weather overviewHow to use our weather pages